Presure
133 144 133 109 117 111 152 116 101 139 117 156 167 112 113 129 119 106 137 128 89 153 122 121 139 129 140 153 136 134 141 146 138 133 136 139 146 133 137 146 150 134 148
134 141 144 132 110 113 109 104 123 146 114 133 114 158 160 137 153 157 158 151 136 134 138 135 125 127 156 144 137 139 152 128 145 149 152 151 153 153 146 134 126 129 132
141 152 141 116 114 107 181 167 125 117 104 125 143 172 148 136 147 148 133 109 127 155 152 154 152 156 142 144 144 131 130 127 142 137 135 137 132 141 129 151 149 130 120
120 124 131 152 147 150 135 110 99 98 195 190 130 137 166 134 132 152 171 146 154 148 141 140 138 131 139 144 155 141 137 128 138 143 139 122 142 128 132 136 133 132 147
122 123 136 137 144 137 149 142 127 140 154 159 166 178 158 178 167 171 167 119 147 144 126 140 146 151 155 148 142 138 133 127 142 121 131 135 131 126 135 123 126 145 155
136 116 121 122 140 153 158 151 113 135 167 117 166 166 166 143 137 110 134 143 118 144 147 135 127 140 141 112 119 121 137 141 128 140 150 148 120 128 147 128 135 157 138
150 130 118 137 115 113 124 147 141 144 145 122 156 148 152 154 138 104 110 105 133 118 134 123 133 122 123 112 117 140 108 132 141 127 124 148 144 146 136 147 131 150 154
138 143 139 136 150 151 129 112 110 103 129 144 133 126 107 140 143 103 136 144 141 144 145 133 121 131 121 134 133 136 140 149 115 147 125 137 152 152 151 144 154 146 152
99 134 103 108 127 114 108 117 150 142 113 122 105 111 109 110 117 122 112 146 111 122 122 121 134 104 137 132 139 134 108 145 155 139 141 122 141 156 162 134 163 163 173
145 97 132 126 142 145 121 110 112 110 106 110 104 125 110 105 146 134 133 134 140 109 130 103 131 129 134 144 127 128 113 149 137 139 154 145 160 149 129 165 181 181 173
135 138 144 122 139 127 130 97 128 143 126 102 102 106 130 140 140 131 119 128 106 142 132 115 117 138 130 133 149 150 145 148 154 150 160 167 151 165 185 168 171 184 197
116 147 147 145 145 142 140 136 138 125 122 137 134 139 108 140 114 133 139 137 120 135 139 144 144 136 129 144 151 145 154 148 144 162 151 155 163 163 189 192 202 183 216
141 141 151 138 135 137 95 110 138 133 136 135 133 138 147 141 141 147 147 139 138 133 129 128 140 141 147 146 141 152 149 162 153 153 161 157 193 188 185 183 220 190 238
86 146 144 147 140 137 150 131 142 143 139 139 136 133 134 138 135 133 138 146 138 140 141 149 146 144 142 147 141 147 148 156 152 163 184 184 184 165 220 227 237 233 235
141 145 125 139 142 120 139 150 137 135 141 139 143 146 141 144 150 143 136 137 139 142 142 129 142 146 147 150 153 140 154 161 172 191 186 171 211 219 219 246 236 236 228
142 147 145 149 144 143 145 142 143 141 141 130 110 108 136 141 113 152 150 149 148 150 150 153 152 151 154 154 156 155 171 187 172 191 190 222 217 211 207 213 240 234 225
148 146 142 141 138 142 151 147 110 90 150 150 153 103 145 139 141 146 150 155 154 164 157 139 156 147 151 161 159 183 191 167 173 205 229 218 213 209 211 204 222 239 227
76 76 137 154 151 141 140 139 120 151 145 142 141 139 141 97 143 150 146 149 145 144 157 155 161 156 171 162 187 183 164 174 203 226 216 210 208 200 206 221 209 243 232
158 145 151 156 145 145 149 149 144 145 153 153 152 145 150 152 155 151 148 151 160 154 157 160 165 164 171 195 182 170 184 208 209 221 205 204 209 205 216 222 206 236 233
159 158 154 150 149 135 151 146 149 152 149 146 151 151 152 157 158 165 165 158 158 161 164 166 176 193 185 178 198 209 197 214 222 212 201 202 202 216 219 201 217 232 235
102 164 75 154 159 159 154 157 157 157 155 157 160 155 162 162 162 160 160 161 155 167 172 175 187 191 174 174 195 202 219 218 210 217 206 204 194 205 210 209 209 224 245
163 154 134 164 151 166 164 159 160 160 156 154 156 159 157 161 159 161 168 167 171 193 186 177 184 176 189 202 208 214 219 219 216 210 210 197 212 203 207 212 212 217 222
173 170 170 156 165 164 146 159 160 161 161 163 164 164 165 161 166 171 170 182 187 187 171 179 189 194 199 203 210 215 211 212 199 193 206 212 202 206 196 209 212 209 227
171 170 173 176 173 170 170 171 126 171 168 163 168 169 171 170 170 187 185 187 186 190 192 191 206 206 210 214 211 212 214 200 202 211 204 202 201 206 202 208 201 221 221
164 168 176 172 172 178 190 167 171 172 173 177 186 187 187 189 178 181 186 187 185 192 182 211 210 202 219 210 206 214 204 203 210 201 199 201 208 201 205 199 201 217 224
183 177 176 158 159 184 186 181 181 181 177 181 179 187 184 180 174 177 190 188 187 188 201 208 213 213 209 214 209 209 195 211 200 197 196 204 201 196 203 198 218 222 218
Wind_Speed
38 40 36 27 31 25 43 27 18 34 26 41 41 22 23 38 28 20 39 37 16 47 31 30 42 38 42 49 41 40 46 45 42 36 37 41 49 38 41 49 51 39 52
40 43 43 36 28 29 25 20 29 38 25 38 21 42 44 40 47 48 49 46 43 42 45 35 35 30 45 44 44 45 50 32 50 52 53 54 55 56 49 39 34 39 43
47 47 43 35 32 27 36 33 28 31 19 35 42 46 46 42 44 49 41 24 36 47 46 46 47 46 45 49 46 37 39 34 48 46 41 41 39 47 36 57 56 41 34
40 41 41 45 43 40 40 29 22 21 32 40 36 38 53 38 42 49 49 46 47 45 46 44 41 39 46 47 51 45 44 37 47 52 48 35 53 38 43 48 46 45 59
43 41 44 43 47 43 43 39 39 36 33 40 40 41 34 39 41 41 43 31 47 47 40 48 51 52 51 50 48 46 43 38 54 36 41 46 42 42 48 42 44 62 68
53 38 40 40 46 43 41 42 34 42 35 31 37 35 35 47 48 27 44 49 33 48 50 42 39 48 50 35 35 35 51 54 40 59 65 64 41 47 62 48 54 74 54
57 51 43 51 39 38 39 38 39 42 46 33 39 44 44 44 46 30 33 31 43 34 46 38 46 37 41 37 42 56 36 51 61 44 45 67 64 64 56 68 54 71 77
61 59 57 49 51 48 45 36 36 33 40 47 43 41 32 45 48 32 47 52 51 53 55 48 39 49 43 53 52 56 62 69 43 68 51 60 73 74 72 66 76 69 75
37 57 38 43 49 43 40 41 50 46 37 40 35 37 35 36 39 41 38 56 38 41 40 44 55 37 59 57 63 61 42 70 78 64 66 50 67 81 87 60 92 90 95
65 35 58 52 60 60 46 41 40 40 38 39 37 45 39 36 54 51 51 52 57 38 52 36 55 53 60 70 53 56 46 77 65 68 83 74 88 78 58 93 95 93 91
63 65 66 53 64 55 55 34 51 60 51 38 37 38 51 58 59 52 45 50 39 64 57 46 50 65 58 62 78 79 74 77 84 81 90 94 81 97 100 93 93 94 90
48 67 72 66 67 65 64 60 61 53 52 61 61 62 44 63 45 61 65 62 50 62 66 71 71 66 62 76 81 77 85 78 77 94 81 87 96 93 96 98 93 90 77
73 71 72 68 65 66 38 48 65 62 65 64 62 65 68 69 69 72 72 67 68 63 59 59 71 73 80 80 74 87 84 95 92 88 99 92 98 99 95 95 80 88 63
35 81 78 77 68 64 72 61 70 71 68 69 67 63 66 71 67 63 69 78 70 73 74 80 78 79 75 82 76 84 88 98 94 102 107 105 102 89 83 77 65 66 57
76 81 61 73 73 57 71 76 66 66 71 71 76 78 75 78 81 77 68 70 71 75 75 63 76 82 84 89 93 80 97 103 106 102 105 100 89 78 77 59 62 57 58
75 83 81 83 80 78 80 75 76 74 73 66 50 46 69 74 52 83 84 83 82 83 85 89 88 89 91 93 96 98 104 101 101 100 97 79 79 80 79 76 58 56 58
87 84 80 78 71 78 84 84 53 40 82 83 84 44 82 72 73 82 84 88 87 94 92 79 92 85 92 99 98 106 100 98 101 99 78 78 78 80 78 79 68 58 59
34 34 78 91 89 79 75 76 64 86 84 80 77 73 78 51 77 87 82 84 80 82 96 97 99 93 106 99 108 101 95 101 99 84 79 79 79 81 79 70 76 59 59
95 81 85 93 82 83 86 87 85 86 92 92 89 83 89 92 94 89 87 91 97 93 96 99 104 102 109 106 102 95 102 100 100 84 81 81 77 79 72 69 75 64 59
94 94 93 89 88 74 90 86 89 92 88 83 90 90 92 97 96 99 100 97 97 100 104 107 110 107 105 102 103 103 105 99 89 86 81 81 80 76 75 81 75 75 68
40 100 14 93 97 98 95 96 96 96 98 99 99 96 99 99 98 95 97 100 91 109 113 114 110 108 101 102 108 103 99 94 88 82 79 80 83 81 80 76 76 78 68
97 88 65 99 89 101 102 98 99 98 99 99 99 98 92 100 98 100 109 109 111 103 108 108 108 103 110 111 103 105 96 91 88 82 82 82 82 86 84 84 82 83 81
105 103 104 93 105 102 79 98 100 102 105 106 107 105 104 100 106 110 110 113 110 107 99 103 107 111 110 108 108 101 97 92 84 82 86 85 84 87 86 90 87 86 86
104 101 106 108 107 105 107 107 69 109 110 105 105 106 107 106 108 109 107 107 106 106 109 105 116 107 102 104 101 99 94 88 89 90 87 86 88 89 89 91 83 94 90
92 97 106 103 104 109 105 100 105 108 109 112 112 110 110 107 106 106 105 105 104 109 100 110 106 106 98 101 102 98 95 91 93 89 89 92 95 90 91 86 91 97 90
108 105 104 87 88 103 104 106 106 108 108 109 106 106 105 103 101 98 107 106 106 102 113 112 108 103 105 102 99 99 93 99 92 92 91 99 97 92 94 90 105 98 97
Wind_Direction
233 238 237 242 242 229 241 232 228 247 258 247 251 264 268 259 270 259 258 270 242 275 288 276 273 288 285 283 285 293 292 291 301 306 305 299 299 306 306 300 298 303 303
237 239 241 241 244 245 247 239 242 242 259 250 260 246 248 259 252 258 259 258 263 270 272 286 294 290 284 286 293 295 289 303 297 296 294 295 295 296 301 302 296 301 300
238 233 241 243 242 245 238 248 256 256 248 256 252 254 250 258 246 254 272 254 282 266 269 271 275 278 283 284 288 299 293 301 300 302 300 305 301 304 299 299 301 299 283
238 237 240 237 242 242 244 249 233 232 250 251 254 257 253 266 268 259 266 263 264 265 273 278 283 295 287 282 284 291 299 295 301 300 303 293 305 298 301 300 300 295 301
238 239 246 246 247 248 245 245 253 255 241 249 244 249 255 255 260 259 259 267 263 268 281 281 274 275 277 283 292 297 301 299 299 291 300 302 297 292 300 287 288 299 302
245 235 241 243 247 240 240 245 248 257 240 258 244 246 248 257 265 266 276 267 272 272 269 289 294 287 291 282 287 289 298 297 299 302 297 300 286 293 301 290 293 305 289
235 249 241 249 242 242 250 241 248 250 252 247 244 253 248 247 259 256 263 262 277 284 291 288 293 287 286 281 285 294 283 299 298 292 290 300 298 299 296 301 288 300 302
244 242 249 244 245 242 254 237 240 238 247 255 256 255 252 254 257 258 266 273 279 276 276 283 286 286 286 292 297 299 299 295 284 296 289 297 302 302 302 297 301 295 298
241 241 241 233 255 247 240 240 251 248 244 264 246 251 257 255 258 263 263 269 268 279 281 278 289 277 296 295 298 296 282 297 295 296 296 289 297 303 302 286 301 300 299
240 252 250 249 251 246 248 243 241 242 246 247 248 267 255 257 266 282 283 285 283 269 289 276 292 293 296 291 290 291 282 296 295 295 300 299 301 298 291 300 299 299 298
247 248 243 252 251 250 259 250 251 258 264 254 257 258 276 276 278 281 277 281 268 283 285 282 284 290 291 293 293 295 297 298 298 298 299 298 297 300 299 298 298 299 299
238 240 240 243 245 248 256 256 255 260 264 271 275 275 267 276 267 278 282 284 278 288 288 288 289 293 290 295 294 297 297 297 297 297 298 298 299 298 300 301 301 300 301
246 247 241 252 250 258 254 256 263 268 270 266 271 275 266 273 276 273 275 285 286 287 287 288 292 292 292 295 295 297 298 296 298 298 298 298 300 299 300 300 303 300 302
233 245 249 249 254 258 250 260 257 259 267 270 273 273 274 276 277 279 282 278 284 284 286 287 290 291 291 293 294 297 297 297 297 297 299 299 299 295 303 305 304 303 301
246 245 243 254 254 255 258 253 259 265 264 267 265 265 270 271 271 275 280 281 284 285 288 285 289 292 292 294 294 293 296 296 297 299 298 298 303 303 304 309 305 302 300
247 245 248 247 252 256 257 260 260 263 265 263 264 267 273 274 272 274 277 280 283 285 287 287 288 290 291 292 293 294 294 296 297 301 300 305 304 303 302 304 310 302 299
245 248 251 254 259 258 254 258 260 256 263 264 265 267 271 275 278 281 281 281 283 281 285 287 289 289 291 291 293 297 296 297 297 306 306 304 303 303 303 302 305 305 300
251 257 249 247 250 259 263 263 262 261 265 267 269 272 276 264 279 280 282 284 286 287 287 287 287 289 291 291 295 295 295 297 304 305 304 304 303 301 302 306 304 306 299
243 248 247 246 256 256 257 259 263 266 263 265 267 274 275 275 275 278 281 284 283 285 286 286 288 290 292 295 294 295 298 305 305 303 302 302 300 299 304 310 302 309 301
245 247 249 252 254 255 256 261 262 263 267 271 270 272 274 275 277 278 279 283 284 285 287 289 290 292 292 294 298 301 303 302 302 302 300 299 299 305 307 298 310 317 309
247 246 239 252 252 254 258 259 262 264 266 268 270 273 274 276 279 281 282 283 285 287 288 289 290 292 294 294 298 300 300 301 300 302 300 298 295 300 303 304 303 316 308
248 249 251 251 253 254 256 259 262 264 267 270 272 274 277 277 280 281 281 283 285 286 286 288 289 292 295 298 297 299 300 301 303 302 303 298 306 302 306 308 310 314 312
248 249 251 252 255 257 259 263 264 264 266 268 269 272 274 277 278 279 282 283 284 286 286 288 291 296 296 296 298 299 298 301 298 294 302 304 300 302 297 308 309 310 313
248 250 251 252 255 258 259 261 260 265 267 269 271 273 274 276 279 281 281 284 285 288 291 291 294 293 292 294 296 296 298 298 299 301 300 298 298 302 301 306 302 310 308
249 251 253 255 256 258 259 262 263 265 267 269 271 272 274 276 278 280 282 284 285 290 288 292 289 293 289 292 294 294 297 296 299 297 298 300 302 298 302 301 302 306 303
248 250 253 254 256 258 260 261 263 264 266 268 271 274 275 276 278 281 283 285 287 287 289 290 290 290 290 291 293 294 292 296 295 295 296 299 298 296 301 299 305 302 300